Vorticity
5 6 6 6 6 6 6 7 8 9 10 10 10 10 9 9 8 8 7 6 9 10 9 6 4 5 5 7 8 8 9 9 8 9 8 8 5 3 3 3 2 4 7 7 7 6 6 5 5 4 4 4 1 3 3 -1 1 3 2 3 15 32 22 1 0 10 7 2 7 7 6 8 5 5 6 3 5 12 10 6 7 9 9 8 8 9 7 7
7 6 7 7 6 6 6 6 7 8 9 9 9 9 10 9 8 8 9 8 6 8 11 10 6 5 5 6 6 8 8 9 9 9 8 9 7 5 5 5 4 4 5 6 7 7 6 6 5 4 4 3 3 3 1 1 1 -2 -1 6 20 28 18 1 -1 11 8 3 7 2 3 10 7 6 8 4 4 11 12 8 7 9 9 7 6 8 11 10
7 7 7 7 7 7 6 6 7 8 8 8 8 8 8 8 9 7 7 9 8 7 8 10 10 7 5 5 5 6 7 8 9 10 9 9 8 7 6 6 6 4 4 4 6 8 6 6 5 5 5 2 4 3 -1 4 4 -0 -1 9 19 12 5 5 6 7 2 3 5 1 4 8 7 7 5 5 5 8 10 7 7 8 8 6 4 6 12 11
5 6 6 7 8 7 8 8 7 9 9 9 8 8 7 7 7 8 7 8 8 8 7 8 10 10 7 6 6 5 6 7 7 10 10 9 8 8 7 7 6 4 4 4 5 8 6 6 5 6 5 2 4 4 1 0 1 7 7 8 13 9 4 3 6 9 2 1 4 5 4 3 6 7 4 5 5 5 6 7 7 8 7 5 4 4 10 11
5 5 7 8 9 9 9 9 9 9 11 10 10 8 8 7 6 7 7 7 7 8 9 7 8 9 10 8 6 6 5 4 7 8 9 10 9 8 9 7 6 5 5 4 4 7 7 6 5 6 5 1 4 6 4 0 -5 5 12 6 8 10 8 4 6 11 4 -2 4 8 2 1 7 6 5 5 5 7 6 7 8 8 7 4 5 5 8 10
7 7 7 7 9 10 10 10 10 10 11 12 12 11 9 8 6 6 6 7 7 7 9 9 8 7 9 10 8 7 5 4 8 10 8 10 10 8 9 8 8 6 5 5 4 5 6 6 5 6 6 1 4 4 4 5 -5 1 14 8 5 9 7 6 8 10 8 1 1 10 6 2 9 7 3 3 4 8 8 7 6 8 8 7 8 6 8 9
8 8 8 8 8 9 9 10 9 10 11 11 13 13 11 9 8 7 6 6 7 8 8 8 9 8 7 9 9 9 7 4 5 8 8 8 10 10 9 9 8 7 6 6 6 6 5 6 5 5 7 3 3 5 3 5 0 1 11 6 3 8 6 5 6 6 11 5 -0 10 9 1 8 8 4 6 6 7 10 9 6 7 8 10 8 5 9 10
8 8 8 8 8 8 9 9 9 9 9 9 11 12 11 10 9 8 7 6 6 7 8 8 9 9 8 7 8 9 9 8 4 5 7 6 8 10 10 10 9 7 7 6 5 7 5 6 5 4 7 3 3 7 4 4 5 1 5 6 5 8 6 6 5 5 11 9 3 8 8 3 7 8 6 10 8 6 10 9 7 6 3 7 8 5 9 10
7 7 7 7 8 8 8 9 9 9 8 8 10 11 10 10 9 8 7 7 7 7 8 9 8 9 9 7 7 7 10 12 6 5 6 6 7 8 10 10 9 8 6 6 5 4 5 5 5 5 5 3 3 6 5 3 6 6 3 3 6 7 7 6 5 7 11 8 5 7 7 3 5 8 5 6 7 7 9 8 7 5 4 5 6 6 8 8
8 7 7 7 7 7 8 9 9 9 8 8 10 10 10 10 9 8 8 7 7 7 8 9 9 8 9 9 7 6 9 10 9 8 7 6 6 6 8 10 10 9 6 6 6 5 6 4 4 5 5 5 5 4 3 1 5 11 5 1 5 6 5 5 7 10 10 7 5 8 7 3 5 8 5 5 10 9 7 10 7 4 5 5 4 6 8 7
9 9 9 8 8 8 8 8 10 10 9 11 12 11 10 10 9 8 8 8 7 8 8 10 10 9 9 9 6 7 9 9 11 12 8 6 6 5 6 8 10 11 9 6 5 5 5 5 6 5 4 5 6 4 2 1 6 11 6 2 2 2 4 6 8 9 7 5 5 7 8 6 7 6 3 6 10 8 6 9 9 5 4 5 6 5 6 8
10 10 10 9 10 9 9 10 11 10 11 14 14 12 12 11 9 8 8 8 8 8 9 11 10 10 10 7 6 9 10 9 11 13 11 8 6 6 5 6 9 10 11 8 5 5 5 7 7 6 6 7 7 3 3 4 4 7 7 6 2 0 5 5 7 8 6 4 2 6 8 5 4 4 3 6 8 8 7 7 8 7 5 4 5 5 6 8
11 11 11 10 11 11 12 12 12 12 13 16 16 14 14 12 10 8 8 8 8 7 9 11 10 11 9 7 9 10 8 7 8 11 13 10 7 6 5 5 7 10 12 9 6 5 5 6 6 7 6 7 8 3 6 7 3 4 6 8 6 1 1 4 6 6 5 4 6 11 8 2 4 4 3 5 7 8 6 6 8 7 5 5 4 6 6 5
11 11 11 11 12 12 14 14 14 15 15 17 17 16 15 14 12 9 8 8 7 8 9 11 11 10 9 10 13 10 8 8 7 9 12 12 9 7 6 5 5 7 11 12 9 6 6 5 5 7 4 5 9 5 8 9 3 3 3 7 10 3 1 4 2 2 5 6 9 12 7 6 9 6 5 7 6 8 7 5 6 7 7 5 5 6 6 4
10 11 11 11 12 13 15 16 15 15 16 17 16 16 15 14 13 10 9 7 7 8 8 10 12 12 12 11 10 8 9 8 7 9 11 13 12 8 7 5 4 5 8 12 11 8 7 5 4 6 6 6 5 7 11 9 6 3 -2 3 10 5 2 3 1 1 9 11 7 9 7 7 10 8 6 5 5 6 7 8 6 7 8 5 5 6 4 5
10 11 11 11 12 13 15 15 14 14 15 16 16 17 16 15 14 11 10 8 8 8 9 11 12 12 9 7 11 10 9 8 6 7 10 13 13 11 8 6 6 4 6 10 11 10 8 6 5 4 6 7 3 6 11 9 9 5 -2 -1 6 9 3 5 9 -1 2 15 10 9 11 5 9 13 4 0 7 6 4 7 7 7 8 6 5 5 5 5
11 11 11 12 12 12 13 13 12 13 14 15 16 17 16 15 13 12 10 8 7 7 10 10 10 13 11 11 16 12 8 8 7 6 9 11 11 12 10 8 7 5 5 7 10 11 8 6 6 3 5 7 4 3 7 9 8 6 2 -4 -3 8 7 9 13 -9 -6 21 13 1 13 13 5 5 4 4 5 4 6 7 7 8 7 8 6 3 6 5
11 11 11 11 11 11 12 12 12 13 15 16 16 17 17 15 14 12 10 9 9 10 12 10 11 13 10 9 11 11 12 10 8 6 7 11 12 12 11 9 8 7 6 6 9 11 9 7 6 5 3 6 8 6 6 7 7 8 6 -1 -4 4 6 9 16 -3 -8 18 12 -5 12 25 14 5 4 4 3 3 7 6 5 7 6 7 9 4 5 4
11 11 10 10 10 11 11 12 13 15 16 16 17 17 16 15 14 12 9 12 13 11 12 10 10 9 7 9 9 12 16 12 8 6 7 9 10 11 11 11 10 8 7 5 7 9 10 9 6 6 3 3 7 10 10 5 5 9 6 -0 -1 12 14 2 9 8 -5 3 9 3 13 22 16 17 12 1 5 6 2 5 6 7 6 5 8 8 7 4
11 10 10 10 10 11 12 13 13 16 17 17 17 17 17 16 13 12 11 14 15 14 14 13 13 9 8 13 12 15 16 11 9 7 6 8 9 11 10 11 11 10 9 6 6 7 10 11 7 7 4 2 4 8 14 9 5 7 4 -2 -9 8 23 2 0 15 4 -4 1 1 9 20 11 7 13 7 4 2 -0 7 7 4 7 6 6 8 9 7
10 10 10 10 12 13 13 14 14 17 18 17 17 17 18 17 16 17 14 15 17 17 15 14 13 9 9 14 14 17 15 10 9 7 7 7 7 9 9 10 11 11 11 8 7 6 8 10 9 10 6 2 1 4 12 10 8 7 6 1 -14 -3 23 10 -2 14 12 -3 1 -0 -5 22 30 5 7 13 1 2 6 5 5 7 6 6 7 6 8 10
10 10 11 12 13 14 14 15 16 17 18 18 17 17 18 18 19 19 16 17 19 20 20 17 15 12 13 17 17 15 14 13 10 8 8 7 7 7 7 9 10 12 12 9 7 6 8 9 9 11 8 3 -0 2 9 7 9 10 6 4 -7 -3 20 18 -0 6 13 -7 -3 10 -9 6 33 10 1 10 3 6 13 6 2 6 4 3 8 7 8 10
10 11 11 13 14 14 16 16 17 18 19 20 20 19 19 19 20 20 19 18 17 19 21 17 16 14 11 13 15 12 13 14 11 10 9 6 7 7 6 7 8 12 13 11 8 6 8 9 10 11 7 5 1 3 10 4 8 15 8 1 -2 -4 7 20 13 3 10 -4 -11 5 -3 -5 12 5 -0 4 4 5 8 8 3 4 7 5 7 7 7 8
11 11 12 14 14 15 17 18 20 21 21 22 22 21 19 19 19 20 20 18 18 18 19 18 16 14 12 12 14 12 13 14 11 11 10 8 8 6 6 6 6 10 12 12 9 8 9 9 11 11 8 7 1 2 8 4 7 15 9 -3 -0 4 1 15 24 6 3 7 -1 2 4 2 4 8 10 6 6 4 1 5 3 6 9 4 7 9 7 10
11 12 13 13 14 17 19 20 21 21 22 22 21 19 18 19 18 18 18 16 19 18 18 21 17 14 16 15 15 12 11 13 12 11 8 8 9 5 5 6 5 8 11 13 11 8 8 10 10 9 8 8 4 1 1 1 1 6 12 1 -5 7 3 7 19 9 4 8 3 4 10 12 8 6 9 6 6 7 6 7 5 7 7 2 11 13 5 7
12 12 13 13 14 18 19 19 19 20 21 19 18 19 19 20 19 19 16 11 16 19 18 19 17 18 17 15 17 12 12 15 12 12 11 9 10 6 4 5 6 8 8 11 13 9 7 7 7 7 10 10 8 3 -2 -1 -3 -0 17 8 -9 -5 0 19 27 5 6 18 11 6 4 9 12 4 2 5 6 5 6 8 7 7 6 5 7 8 8 4
12 12 12 13 15 19 18 17 17 18 17 15 18 21 22 23 20 20 17 13 18 22 19 14 12 17 13 14 18 10 20 30 16 11 13 12 13 9 6 3 3 8 8 8 10 8 9 10 6 5 11 12 10 8 3 -0 -9 -3 21 18 2 -13 -18 20 34 -6 -7 18 19 7 -8 -1 14 6 -1 5 7 5 3 5 8 3 3 13 8 1 9 9
11 12 12 13 17 19 16 15 17 17 15 14 19 22 24 24 19 19 15 10 18 21 20 15 12 17 13 15 15 -1 8 24 16 15 16 12 11 8 11 11 4 6 7 7 11 12 10 9 6 5 8 12 13 9 8 5 -12 -11 13 19 17 0 -20 4 16 -6 -7 6 22 20 -7 -7 14 12 2 3 6 5 3 6 5 -4 -1 16 17 4 5 10
11 12 11 14 17 17 15 15 17 16 14 15 19 22 24 22 18 18 8 -2 11 22 22 18 17 20 15 13 14 5 6 10 10 15 13 11 13 6 8 13 7 7 9 3 6 19 24 14 6 7 7 9 15 11 7 10 -2 -11 -2 4 11 9 -0 2 -1 -0 1 -8 13 31 5 -10 2 14 13 3 2 3 3 7 3 -4 -3 2 9 8 3 5
11 12 12 15 17 18 15 16 17 14 11 13 20 23 21 20 15 12 7 0 11 23 20 15 15 17 17 15 16 15 15 14 14 13 8 11 14 9 10 14 8 4 8 4 -8 2 26 25 7 5 9 5 10 17 13 10 5 -0 -4 -5 2 5 5 5 -5 -4 1 -4 6 13 8 6 -3 1 18 15 7 2 -2 2 1 -2 -0 -1 2 7 6 8
11 12 14 14 17 19 14 16 18 12 9 12 21 22 15 19 11 1 9 11 14 26 21 13 12 10 11 12 14 16 12 14 17 13 15 16 11 12 13 15 18 8 1 5 -1 -4 9 17 9 3 9 6 -2 8 18 12 7 7 -0 -5 4 6 2 7 7 -5 -13 4 23 4 -7 17 10 -11 1 16 15 6 -0 2 3 2 1 3 6 2 -0 8
11 13 16 14 17 19 13 17 17 11 11 10 18 21 10 14 9 0 13 15 16 25 15 13 20 16 16 13 14 21 14 14 16 9 20 23 14 19 12 7 22 21 12 11 7 4 2 8 18 9 4 11 2 0 15 14 7 10 6 -1 2 5 3 2 10 9 -16 -14 21 14 -14 3 19 3 -6 9 17 7 1 2 5 8 4 2 6 2 -4 0
11 14 16 14 18 19 12 15 16 14 13 7 15 22 10 8 8 5 13 10 14 20 8 15 19 5 13 18 16 20 13 15 17 7 16 18 9 14 8 4 8 -1 14 37 19 2 5 8 17 15 3 9 10 4 15 18 11 13 13 8 4 4 11 4 -3 13 6 -16 -1 13 -2 -6 7 11 3 6 16 12 5 3 3 5 5 4 6 7 4 0
12 15 15 14 19 20 12 12 15 15 12 11 17 17 8 9 7 7 12 6 12 19 11 19 14 -5 5 17 16 12 4 12 17 8 15 19 18 23 16 17 20 -11 -11 35 35 6 11 16 10 15 13 7 8 4 6 12 10 11 12 14 14 9 16 14 -3 9 17 1 3 11 9 10 8 8 6 -1 8 19 11 3 3 4 3 4 6 8 8 3
12 14 14 14 18 22 15 9 14 15 11 14 17 9 6 13 9 7 15 12 13 20 16 17 16 6 3 10 20 11 -1 14 19 8 14 18 21 33 20 8 22 6 -26 4 40 18 13 30 17 8 14 8 8 7 5 7 9 12 10 8 10 9 20 25 10 13 16 4 8 4 -4 10 15 11 11 -2 -2 15 18 6 0 3 5 4 5 7 10 8
13 12 14 15 17 23 18 9 13 13 9 11 13 6 5 14 12 9 18 17 12 16 18 16 14 9 -3 1 20 12 -1 14 13 -4 -2 1 5 22 19 2 10 17 -12 -12 23 19 19 46 28 1 10 10 6 11 10 4 3 14 16 7 1 -5 8 24 19 23 25 6 3 4 -2 3 2 3 13 8 -3 1 9 10 3 0 4 5 5 4 7 11
13 12 14 14 15 21 21 13 9 10 14 17 17 14 12 15 13 11 16 16 14 17 17 15 12 10 7 7 16 13 6 13 9 2 5 6 11 18 17 13 12 17 10 -8 -10 -2 21 51 30 -2 10 14 4 11 15 2 -2 9 13 13 12 -5 -15 -1 9 21 28 14 7 9 11 13 4 -4 3 9 7 4 1 3 5 4 2 3 5 4 4 8
13 12 12 12 12 17 21 17 9 9 17 16 14 17 17 16 12 11 14 13 16 13 3 9 12 7 14 17 14 16 14 13 12 12 16 16 16 15 10 14 12 10 19 6 -19 -20 6 41 41 10 2 11 4 4 14 11 4 -1 -4 1 9 8 3 -7 -9 12 25 17 13 11 7 17 22 11 5 9 10 9 9 8 4 4 3 1 3 3 4 5
13 12 10 12 11 11 17 19 11 11 15 10 12 20 17 14 11 9 12 12 18 8 -9 11 21 1 8 18 17 20 9 8 16 7 9 19 14 13 11 10 12 9 12 8 -9 -15 -13 8 42 32 2 6 10 2 8 18 17 6 1 5 -2 -2 19 12 -17 -8 16 16 11 9 4 11 21 14 7 15 16 7 9 13 10 6 4 3 2 2 4 4
12 11 10 13 10 6 11 16 11 12 16 11 16 25 20 16 10 5 10 10 13 8 -5 14 24 5 7 12 16 24 2 -4 17 9 6 20 14 13 15 9 12 13 13 13 7 12 1 -15 23 47 11 0 16 9 1 8 16 15 9 17 15 -8 -2 12 -6 -15 5 16 10 5 6 14 22 16 1 -0 10 12 7 8 13 13 7 4 4 3 4 3
11 10 10 14 12 6 6 12 13 14 15 10 11 18 20 21 13 5 11 9 7 12 5 6 17 14 11 10 14 24 6 -6 10 10 7 14 9 10 14 10 14 12 11 16 8 17 15 -18 5 49 25 8 22 11 0 -0 1 10 1 -0 28 28 -0 -4 1 -3 -3 5 11 10 7 7 10 18 18 5 0 7 10 7 9 13 12 9 8 6 5 4
11 11 11 13 13 9 5 8 12 12 13 12 9 11 14 17 15 9 12 10 5 14 10 -1 12 17 4 4 15 19 10 4 8 9 9 11 8 10 11 8 14 11 7 16 10 11 17 -15 -16 24 26 20 25 8 7 14 5 10 2 -23 -1 39 35 12 5 14 11 -3 3 13 9 9 6 -0 9 17 10 3 8 11 7 6 11 12 11 9 6 5
10 9 10 13 12 11 9 9 11 9 11 15 13 14 13 10 12 12 11 11 5 8 11 3 11 20 7 3 13 13 11 11 12 13 13 13 10 10 13 8 9 11 6 12 12 9 18 -1 -22 3 18 13 14 6 6 14 6 8 12 -7 -19 -5 16 14 -2 10 20 3 5 15 6 12 21 7 -1 11 19 13 6 11 12 5 6 9 10 11 7 4
10 9 8 12 13 10 10 11 12 8 7 10 10 13 17 11 12 14 8 9 8 4 10 7 4 12 13 8 10 9 8 8 11 13 12 15 13 8 13 12 9 12 8 11 14 7 13 8 -14 1 27 19 13 14 12 12 8 5 9 9 0 -13 -8 3 -7 -6 3 -5 -1 14 7 4 12 14 12 11 15 19 10 9 16 11 4 5 7 9 8 3
9 10 7 9 11 11 12 11 11 9 5 7 7 6 11 13 14 16 10 11 14 7 7 8 4 6 8 7 8 7 5 4 7 10 8 10 13 8 10 12 10 14 11 9 14 8 9 12 -6 -7 14 21 18 17 14 13 10 10 9 4 8 10 5 7 4 1 5 -2 -6 2 5 4 3 5 14 13 10 17 14 8 16 17 8 5 5 6 7 3
8 10 8 7 8 8 12 13 13 14 10 8 9 4 5 9 9 12 13 13 16 14 11 10 8 8 6 5 7 7 7 7 6 10 10 8 10 9 9 10 9 13 14 10 11 10 9 13 7 -4 -5 3 12 11 8 9 9 13 12 2 4 11 7 9 8 1 3 3 4 9 2 -3 1 -0 1 3 3 13 18 10 11 18 14 9 6 5 4 3
8 10 9 8 8 5 9 13 13 17 16 13 14 10 6 7 5 6 8 9 11 14 17 18 14 13 12 9 10 9 9 10 7 9 11 10 11 10 9 11 10 10 12 12 13 13 10 9 10 8 2 1 8 11 6 4 11 16 8 1 8 8 5 12 9 -2 1 -2 -2 12 12 2 7 7 2 -0 -5 1 14 13 9 13 16 14 11 7 3 1
7 9 9 8 9 6 5 9 9 11 14 13 16 17 15 13 12 10 7 5 6 6 9 15 15 16 18 15 14 14 13 12 12 11 11 11 13 13 11 11 11 11 11 11 12 13 11 12 9 6 6 5 6 13 13 6 8 15 10 5 10 8 4 8 7 2 7 4 -3 4 9 7 8 7 12 20 14 3 5 11 10 9 12 15 13 11 8 3
8 8 9 8 9 8 5 7 7 6 8 8 9 12 15 15 16 19 18 13 10 7 4 6 8 11 15 15 15 17 15 14 16 14 12 12 11 13 16 15 13 14 12 11 13 11 10 15 14 8 8 9 5 6 14 14 10 11 13 9 7 8 8 7 8 8 5 3 7 5 2 9 14 7 6 17 21 16 10 10 12 8 8 12 13 13 12 8
9 9 9 7 8 9 7 6 7 6 6 6 6 7 8 9 9 14 21 24 22 18 13 8 7 7 7 8 11 14 13 15 19 18 15 15 12 12 14 16 17 17 15 13 12 12 13 14 14 12 12 13 10 7 8 11 9 11 15 13 7 7 10 8 9 13 7 1 9 8 -2 2 11 8 1 -3 3 12 12 9 10 9 8 9 10 13 13 12
10 9 9 8 8 8 8 7 7 7 6 5 7 7 6 8 7 5 9 16 21 26 25 19 14 10 7 6 6 7 7 9 12 13 13 14 15 15 14 14 16 17 17 17 13 12 15 13 12 13 14 15 14 10 12 11 6 9 14 13 11 8 10 13 10 10 8 -1 2 12 10 5 8 11 12 8 4 7 8 6 5 6 9 8 8 10 12 12
10 10 9 8 8 8 8 8 7 8 9 8 6 7 7 6 8 8 6 6 9 15 22 26 24 19 14 11 7 7 7 7 6 7 8 8 8 11 12 13 15 16 18 19 16 16 15 12 13 11 10 22 21 8 13 17 10 13 15 9 11 10 6 10 10 9 12 5 -0 5 8 7 8 9 11 10 8 6 4 2 3 5 8 8 7 9 10 11
Height
5860 5859 5858 5858 5857 5856 5856 5855 5855 5854 5854 5854 5853 5853 5854 5854 5854 5855 5856 5857 5858 5859 5859 5860 5861 5862 5863 5863 5865 5866 5867 5868 5870 5871 5873 5875 5877 5878 5878 5879 5882 5883 5884 5885 5887 5888 5890 5891 5892 5893 5894 5894 5895 5895 5895 5896 5896 5896 5897 5896 5894 5895 5896 5898 5899 5899 5901 5903 5904 5904 5904 5904 5904 5904 5904 5904 5905 5905 5905 5906 5906 5907 5908 5908 5909 5910 5911 5911
5858 5857 5856 5855 5855 5854 5853 5853 5853 5852 5852 5852 5851 5851 5851 5851 5852 5852 5853 5854 5856 5857 5858 5858 5859 5860 5860 5861 5863 5864 5865 5866 5867 5869 5871 5873 5875 5876 5877 5878 5880 5882 5883 5884 5885 5887 5889 5891 5892 5892 5893 5894 5894 5895 5895 5896 5896 5897 5897 5896 5895 5895 5897 5899 5899 5899 5902 5904 5904 5904 5904 5904 5904 5905 5905 5905 5905 5905 5906 5906 5907 5907 5908 5908 5909 5910 5911 5912
5855 5854 5853 5852 5852 5851 5851 5850 5850 5850 5850 5849 5849 5849 5849 5849 5849 5849 5850 5851 5853 5854 5855 5856 5857 5857 5858 5859 5860 5862 5863 5864 5865 5867 5869 5871 5872 5873 5875 5877 5879 5880 5881 5883 5885 5887 5889 5890 5891 5892 5893 5893 5894 5894 5895 5896 5897 5897 5897 5897 5896 5896 5898 5899 5899 5900 5902 5903 5904 5904 5904 5904 5904 5905 5905 5905 5905 5906 5907 5907 5908 5908 5908 5909 5909 5910 5912 5913
5853 5851 5851 5850 5849 5848 5847 5847 5847 5847 5847 5847 5847 5846 5846 5846 5847 5847 5847 5848 5849 5851 5852 5853 5854 5855 5856 5857 5858 5859 5861 5861 5863 5865 5867 5868 5870 5871 5873 5875 5877 5878 5880 5882 5885 5887 5888 5889 5890 5892 5892 5893 5893 5894 5894 5895 5897 5898 5897 5897 5897 5897 5898 5899 5900 5901 5901 5902 5904 5905 5905 5904 5905 5905 5906 5906 5906 5907 5908 5908 5909 5909 5909 5909 5910 5911 5912 5914
5850 5849 5848 5847 5846 5845 5844 5844 5843 5843 5843 5843 5844 5844 5844 5844 5844 5844 5845 5845 5846 5847 5849 5850 5852 5853 5854 5854 5855 5857 5858 5859 5861 5863 5864 5866 5867 5869 5871 5874 5875 5876 5878 5881 5883 5885 5887 5888 5889 5891 5892 5892 5893 5893 5894 5895 5897 5898 5897 5897 5898 5898 5899 5899 5900 5900 5901 5902 5903 5904 5905 5905 5906 5906 5907 5907 5907 5907 5908 5909 5909 5910 5910 5910 5910 5911 5912 5914
5847 5846 5845 5844 5843 5842 5841 5840 5840 5840 5840 5840 5840 5840 5841 5841 5841 5841 5842 5842 5843 5844 5845 5847 5849 5850 5851 5852 5853 5854 5854 5857 5859 5861 5862 5864 5865 5867 5869 5872 5873 5874 5876 5879 5881 5883 5885 5887 5888 5889 5891 5892 5892 5893 5893 5894 5897 5898 5897 5897 5898 5898 5899 5899 5900 5900 5901 5902 5903 5904 5905 5906 5906 5906 5907 5907 5908 5908 5909 5909 5910 5910 5911 5911 5911 5911 5913 5915
5844 5842 5841 5841 5840 5839 5838 5837 5836 5836 5836 5836 5836 5837 5837 5837 5838 5838 5838 5839 5840 5841 5841 5843 5845 5847 5848 5849 5850 5851 5852 5855 5857 5858 5860 5862 5863 5865 5867 5869 5871 5873 5875 5877 5879 5881 5883 5885 5886 5888 5889 5891 5891 5892 5892 5893 5896 5897 5897 5897 5898 5898 5899 5899 5899 5900 5901 5902 5903 5904 5905 5906 5906 5906 5906 5907 5908 5908 5909 5910 5910 5910 5911 5911 5912 5912 5914 5915
5840 5839 5838 5837 5836 5835 5834 5833 5833 5832 5832 5832 5833 5833 5834 5834 5834 5835 5835 5835 5836 5837 5838 5839 5841 5843 5845 5846 5847 5848 5849 5852 5854 5855 5858 5859 5861 5864 5865 5867 5869 5871 5873 5875 5877 5879 5881 5883 5884 5886 5888 5889 5890 5891 5892 5893 5895 5896 5897 5897 5898 5898 5898 5899 5899 5900 5901 5901 5902 5903 5904 5905 5906 5907 5907 5907 5908 5909 5910 5910 5910 5911 5912 5912 5913 5913 5914 5916
5837 5836 5835 5833 5832 5831 5830 5829 5829 5829 5828 5828 5829 5829 5830 5830 5830 5831 5831 5832 5832 5833 5835 5836 5837 5839 5841 5843 5844 5844 5847 5850 5851 5853 5855 5856 5859 5861 5863 5865 5866 5868 5870 5872 5874 5876 5878 5881 5882 5884 5886 5888 5889 5891 5892 5892 5894 5896 5897 5897 5898 5898 5898 5899 5899 5900 5900 5901 5902 5903 5903 5905 5906 5907 5908 5908 5909 5909 5910 5910 5910 5911 5912 5913 5914 5914 5915 5916
5834 5832 5831 5830 5829 5828 5827 5826 5825 5824 5824 5825 5825 5825 5825 5826 5826 5827 5827 5828 5829 5829 5831 5832 5834 5835 5837 5839 5840 5841 5845 5847 5848 5850 5852 5854 5857 5859 5860 5862 5864 5866 5868 5870 5872 5874 5877 5879 5880 5883 5885 5887 5889 5890 5891 5892 5894 5896 5897 5897 5898 5898 5899 5899 5899 5900 5900 5901 5901 5902 5903 5905 5906 5907 5908 5908 5908 5910 5910 5910 5911 5912 5912 5913 5914 5915 5916 5917
5830 5829 5827 5826 5825 5824 5823 5822 5821 5820 5820 5820 5820 5820 5821 5821 5822 5822 5823 5824 5824 5826 5827 5828 5830 5831 5833 5835 5836 5838 5842 5844 5845 5848 5849 5851 5854 5856 5858 5859 5861 5864 5866 5868 5870 5872 5874 5876 5879 5882 5884 5885 5887 5889 5890 5892 5894 5895 5896 5897 5897 5898 5899 5899 5900 5900 5901 5900 5901 5902 5904 5906 5907 5908 5909 5908 5908 5910 5910 5910 5911 5912 5913 5914 5915 5915 5916 5917
5826 5825 5823 5822 5821 5820 5819 5818 5817 5816 5816 5816 5816 5816 5816 5816 5817 5817 5818 5819 5820 5821 5823 5824 5826 5827 5830 5831 5832 5836 5840 5841 5843 5845 5846 5849 5851 5853 5855 5857 5859 5861 5864 5866 5867 5870 5872 5875 5879 5880 5881 5884 5886 5887 5889 5890 5892 5894 5895 5896 5897 5898 5898 5899 5900 5900 5900 5900 5901 5904 5906 5907 5908 5907 5908 5909 5909 5910 5910 5911 5911 5912 5913 5914 5915 5916 5917 5918
5822 5820 5819 5818 5817 5815 5814 5813 5812 5811 5811 5811 5811 5811 5811 5811 5812 5813 5813 5814 5816 5817 5818 5820 5822 5824 5825 5826 5829 5833 5835 5837 5840 5841 5844 5846 5847 5850 5852 5855 5857 5859 5862 5864 5865 5868 5871 5874 5877 5878 5881 5884 5884 5886 5888 5890 5892 5893 5894 5896 5897 5897 5898 5899 5900 5899 5899 5900 5902 5904 5905 5907 5907 5907 5908 5909 5909 5910 5911 5911 5912 5912 5913 5914 5915 5916 5917 5918
5819 5816 5815 5814 5812 5811 5810 5809 5808 5807 5807 5807 5806 5806 5806 5807 5807 5808 5809 5810 5811 5813 5814 5816 5817 5819 5821 5823 5827 5830 5832 5835 5837 5838 5841 5843 5845 5847 5849 5852 5854 5857 5860 5862 5864 5867 5870 5873 5874 5877 5880 5881 5882 5886 5888 5889 5891 5892 5893 5895 5896 5896 5897 5898 5898 5898 5899 5901 5902 5904 5904 5906 5907 5907 5908 5909 5909 5910 5911 5912 5912 5912 5913 5914 5915 5916 5917 5918
5815 5813 5811 5809 5808 5807 5806 5805 5804 5803 5803 5802 5802 5802 5801 5802 5802 5803 5804 5805 5806 5808 5810 5811 5813 5815 5817 5820 5823 5825 5828 5831 5833 5835 5838 5840 5842 5844 5847 5849 5852 5854 5857 5860 5862 5866 5869 5871 5873 5877 5879 5880 5884 5887 5887 5888 5890 5891 5893 5895 5895 5896 5897 5897 5897 5897 5900 5901 5903 5903 5903 5905 5907 5907 5908 5908 5909 5910 5911 5912 5912 5912 5913 5914 5915 5915 5917 5918
5810 5809 5807 5805 5804 5803 5802 5801 5799 5799 5798 5798 5797 5797 5797 5797 5798 5799 5800 5801 5802 5803 5805 5807 5809 5811 5812 5815 5818 5822 5825 5827 5830 5833 5835 5837 5839 5842 5844 5847 5849 5852 5855 5857 5860 5863 5866 5869 5872 5875 5876 5879 5882 5884 5885 5887 5889 5890 5892 5894 5894 5895 5896 5897 5897 5898 5899 5900 5902 5903 5903 5905 5906 5907 5909 5909 5908 5910 5911 5912 5912 5913 5913 5914 5915 5916 5917 5918
5806 5804 5803 5801 5799 5798 5797 5796 5795 5794 5794 5793 5793 5793 5793 5793 5793 5794 5795 5796 5798 5799 5801 5803 5805 5807 5809 5812 5816 5818 5820 5824 5827 5830 5832 5834 5837 5839 5842 5844 5847 5850 5853 5855 5858 5860 5863 5866 5869 5872 5875 5878 5880 5880 5883 5885 5888 5890 5891 5893 5894 5895 5896 5896 5897 5898 5899 5900 5902 5903 5902 5904 5905 5906 5908 5908 5907 5909 5911 5912 5913 5913 5913 5914 5915 5916 5917 5918
5802 5800 5798 5797 5795 5794 5792 5791 5790 5789 5789 5788 5788 5788 5788 5788 5788 5789 5790 5791 5793 5794 5796 5798 5801 5803 5805 5808 5810 5812 5816 5821 5824 5827 5829 5832 5834 5837 5839 5842 5845 5847 5850 5853 5855 5858 5860 5863 5867 5870 5874 5877 5878 5879 5882 5885 5887 5890 5891 5893 5894 5894 5895 5896 5896 5897 5899 5900 5901 5903 5903 5903 5905 5906 5907 5908 5907 5909 5911 5912 5913 5913 5913 5914 5915 5916 5917 5918
5798 5796 5794 5793 5791 5789 5787 5786 5785 5784 5783 5783 5782 5782 5782 5783 5783 5784 5785 5786 5788 5789 5791 5793 5796 5797 5799 5802 5804 5809 5815 5818 5820 5823 5826 5829 5832 5834 5836 5839 5842 5845 5848 5850 5853 5855 5858 5861 5864 5867 5870 5874 5876 5879 5882 5884 5886 5888 5890 5892 5893 5893 5894 5895 5896 5897 5898 5900 5901 5903 5903 5903 5904 5906 5907 5908 5908 5909 5910 5911 5912 5913 5913 5914 5915 5916 5917 5918
5794 5792 5790 5788 5786 5784 5783 5781 5779 5778 5778 5777 5777 5777 5777 5777 5778 5779 5780 5781 5782 5785 5787 5790 5792 5793 5795 5798 5802 5807 5812 5814 5816 5820 5823 5826 5829 5831 5833 5836 5839 5842 5845 5848 5850 5853 5856 5859 5861 5864 5869 5873 5875 5878 5881 5882 5883 5885 5887 5889 5891 5892 5892 5893 5895 5897 5898 5899 5900 5902 5903 5903 5903 5906 5908 5908 5908 5908 5909 5911 5911 5912 5913 5914 5914 5915 5917 5918
5791 5789 5787 5784 5782 5780 5778 5776 5774 5773 5772 5772 5771 5771 5772 5772 5773 5774 5775 5776 5778 5780 5783 5785 5787 5788 5790 5795 5800 5805 5807 5810 5813 5816 5820 5822 5825 5828 5830 5833 5837 5840 5842 5845 5848 5851 5853 5856 5859 5864 5868 5871 5874 5876 5878 5879 5881 5884 5886 5887 5890 5891 5890 5891 5894 5895 5897 5898 5899 5901 5902 5902 5902 5905 5907 5907 5907 5907 5908 5910 5911 5911 5913 5914 5914 5915 5916 5917
5788 5785 5783 5781 5778 5776 5774 5771 5770 5768 5767 5766 5766 5766 5767 5767 5768 5769 5771 5772 5773 5776 5778 5781 5783 5785 5788 5793 5797 5800 5804 5806 5810 5813 5817 5820 5822 5825 5827 5830 5834 5837 5839 5842 5845 5848 5851 5854 5858 5862 5865 5868 5871 5872 5872 5875 5878 5882 5885 5886 5889 5889 5888 5890 5893 5894 5896 5897 5897 5898 5900 5900 5902 5904 5905 5905 5906 5907 5908 5909 5910 5911 5912 5913 5914 5914 5916 5917
5785 5782 5780 5777 5775 5772 5769 5767 5765 5763 5762 5761 5761 5761 5762 5763 5764 5765 5766 5768 5769 5771 5774 5776 5779 5781 5785 5789 5792 5796 5800 5802 5806 5810 5814 5817 5819 5821 5824 5827 5831 5834 5836 5839 5843 5846 5849 5853 5856 5860 5862 5863 5865 5867 5871 5875 5878 5881 5883 5885 5887 5886 5887 5890 5892 5892 5894 5896 5897 5898 5899 5900 5902 5904 5904 5904 5905 5906 5908 5909 5909 5911 5913 5913 5914 5914 5916 5917
5782 5779 5776 5774 5771 5768 5766 5763 5761 5759 5758 5758 5758 5758 5758 5759 5760 5761 5763 5764 5766 5768 5770 5772 5775 5778 5780 5784 5790 5793 5795 5797 5802 5806 5810 5813 5815 5819 5822 5825 5828 5831 5834 5837 5841 5844 5848 5852 5855 5856 5856 5858 5862 5867 5872 5875 5877 5879 5881 5883 5884 5884 5887 5889 5888 5890 5893 5896 5898 5898 5900 5900 5901 5902 5903 5904 5904 5905 5907 5909 5910 5911 5912 5914 5915 5916 5916 5917
5779 5776 5773 5771 5768 5765 5762 5760 5758 5757 5755 5755 5755 5755 5756 5756 5757 5759 5761 5763 5764 5765 5767 5770 5773 5775 5779 5784 5787 5789 5790 5794 5797 5801 5806 5808 5811 5816 5820 5823 5826 5828 5832 5836 5839 5842 5846 5849 5849 5850 5852 5858 5864 5868 5871 5872 5875 5877 5878 5880 5881 5883 5886 5886 5886 5890 5893 5895 5898 5898 5900 5901 5901 5901 5901 5902 5904 5905 5906 5908 5910 5911 5911 5913 5914 5916 5917 5917
5777 5774 5771 5768 5765 5762 5760 5757 5756 5754 5753 5753 5753 5753 5754 5754 5756 5757 5759 5761 5762 5763 5766 5768 5770 5773 5776 5780 5782 5786 5790 5792 5795 5800 5803 5805 5808 5812 5816 5820 5822 5825 5829 5834 5836 5839 5842 5842 5842 5845 5852 5858 5861 5865 5867 5869 5872 5874 5875 5877 5879 5881 5884 5885 5887 5891 5893 5895 5896 5898 5899 5900 5900 5900 5900 5901 5902 5904 5905 5907 5909 5910 5911 5913 5914 5915 5916 5916
5774 5771 5769 5766 5763 5760 5757 5756 5754 5753 5752 5752 5751 5752 5752 5753 5754 5756 5759 5761 5761 5762 5763 5765 5766 5769 5772 5775 5780 5785 5787 5789 5794 5798 5800 5803 5807 5812 5815 5816 5818 5822 5826 5830 5834 5836 5836 5836 5840 5846 5851 5854 5857 5861 5864 5867 5870 5871 5873 5875 5877 5879 5881 5884 5887 5889 5892 5892 5893 5896 5897 5897 5898 5898 5899 5900 5901 5903 5904 5905 5907 5909 5910 5912 5913 5915 5915 5915
5772 5769 5767 5764 5761 5758 5756 5754 5753 5752 5752 5751 5751 5751 5751 5752 5754 5756 5758 5760 5761 5760 5761 5763 5765 5768 5771 5774 5778 5779 5781 5785 5790 5793 5797 5801 5805 5809 5812 5813 5817 5820 5823 5829 5833 5833 5832 5834 5839 5845 5848 5851 5854 5858 5861 5864 5867 5869 5870 5872 5875 5876 5878 5882 5885 5887 5889 5891 5892 5894 5895 5895 5896 5896 5897 5899 5900 5902 5903 5904 5905 5907 5908 5911 5913 5914 5914 5914
5771 5768 5765 5762 5759 5757 5755 5754 5753 5752 5751 5751 5750 5750 5751 5752 5754 5756 5757 5758 5759 5759 5760 5763 5766 5768 5770 5773 5775 5777 5780 5783 5785 5788 5794 5798 5801 5804 5807 5811 5815 5817 5822 5829 5831 5831 5831 5834 5838 5842 5845 5848 5852 5855 5857 5861 5866 5867 5866 5868 5871 5873 5877 5881 5883 5885 5887 5888 5890 5893 5894 5894 5894 5895 5896 5897 5899 5900 5902 5902 5903 5904 5906 5909 5912 5913 5913 5913
5769 5766 5764 5761 5758 5756 5754 5753 5752 5752 5751 5751 5750 5750 5751 5752 5754 5756 5757 5757 5758 5759 5760 5762 5764 5767 5770 5772 5774 5777 5780 5782 5785 5789 5793 5795 5798 5802 5805 5809 5813 5815 5821 5825 5825 5825 5828 5831 5836 5839 5840 5843 5849 5853 5854 5859 5864 5862 5862 5867 5870 5873 5877 5879 5881 5883 5884 5885 5888 5891 5894 5894 5893 5894 5895 5895 5897 5898 5900 5901 5902 5903 5903 5905 5908 5911 5913 5914
5768 5765 5763 5760 5758 5756 5754 5753 5752 5752 5751 5751 5751 5751 5751 5753 5754 5756 5757 5758 5759 5759 5761 5763 5764 5766 5769 5772 5774 5776 5778 5781 5785 5789 5792 5794 5797 5800 5804 5808 5811 5813 5818 5821 5821 5822 5825 5829 5831 5832 5835 5839 5844 5846 5849 5857 5859 5855 5859 5868 5871 5874 5877 5878 5880 5881 5882 5883 5887 5890 5892 5893 5892 5892 5893 5894 5895 5896 5898 5900 5901 5902 5903 5903 5905 5908 5911 5913
5768 5765 5762 5759 5757 5755 5754 5753 5752 5752 5752 5751 5751 5751 5751 5753 5755 5756 5756 5758 5759 5760 5761 5762 5764 5767 5770 5772 5773 5775 5778 5781 5784 5787 5789 5793 5796 5798 5802 5805 5808 5812 5816 5818 5819 5822 5824 5826 5827 5829 5833 5838 5841 5843 5849 5855 5853 5853 5862 5869 5871 5874 5875 5876 5878 5879 5880 5883 5886 5888 5891 5891 5889 5889 5891 5894 5895 5895 5897 5898 5900 5901 5902 5903 5905 5906 5907 5909
5767 5764 5762 5759 5757 5755 5754 5753 5752 5752 5752 5751 5751 5751 5752 5753 5755 5756 5757 5758 5759 5760 5760 5762 5765 5768 5770 5772 5773 5774 5777 5780 5782 5784 5787 5790 5793 5796 5799 5801 5804 5809 5814 5817 5818 5820 5823 5824 5827 5830 5833 5835 5840 5845 5850 5852 5851 5856 5864 5866 5868 5872 5872 5874 5877 5877 5880 5884 5886 5888 5889 5888 5886 5886 5888 5891 5893 5894 5895 5897 5899 5900 5901 5902 5904 5904 5905 5907
5766 5764 5761 5759 5756 5755 5754 5753 5752 5752 5752 5752 5752 5752 5753 5754 5755 5756 5756 5757 5758 5759 5760 5763 5765 5768 5770 5771 5772 5774 5777 5779 5780 5783 5786 5790 5792 5795 5797 5801 5804 5806 5810 5816 5817 5818 5822 5824 5825 5829 5830 5833 5839 5842 5843 5846 5850 5856 5861 5863 5867 5869 5870 5874 5877 5877 5880 5884 5887 5888 5887 5884 5883 5884 5885 5890 5892 5892 5894 5896 5897 5898 5900 5901 5902 5903 5903 5905
5766 5764 5762 5759 5757 5755 5754 5753 5753 5753 5752 5752 5752 5753 5754 5754 5754 5755 5755 5757 5758 5760 5762 5764 5766 5769 5771 5771 5771 5773 5776 5777 5780 5783 5786 5790 5791 5792 5793 5797 5801 5803 5807 5813 5815 5818 5821 5819 5820 5825 5827 5831 5836 5837 5839 5844 5848 5853 5856 5859 5863 5867 5870 5874 5876 5878 5881 5884 5886 5886 5883 5881 5880 5881 5884 5888 5891 5891 5893 5894 5895 5897 5898 5900 5901 5902 5903 5902
5766 5764 5762 5759 5757 5755 5754 5753 5753 5753 5753 5752 5752 5753 5754 5754 5753 5755 5755 5757 5759 5760 5762 5765 5767 5769 5771 5770 5771 5773 5775 5777 5780 5782 5784 5786 5787 5788 5791 5795 5798 5802 5804 5807 5813 5819 5820 5815 5817 5824 5826 5829 5833 5835 5838 5843 5846 5850 5853 5857 5861 5864 5867 5872 5875 5877 5879 5882 5884 5882 5879 5878 5879 5880 5882 5885 5888 5890 5892 5893 5894 5895 5897 5899 5900 5901 5903 5902
5766 5764 5762 5760 5758 5755 5754 5753 5753 5753 5753 5752 5752 5752 5753 5753 5753 5755 5756 5757 5759 5760 5763 5765 5767 5769 5770 5771 5772 5773 5775 5777 5780 5781 5782 5784 5785 5787 5791 5794 5797 5800 5803 5805 5809 5816 5816 5813 5815 5821 5822 5826 5831 5833 5836 5841 5844 5847 5852 5855 5857 5858 5860 5865 5870 5875 5877 5881 5883 5880 5875 5877 5880 5879 5880 5882 5885 5888 5891 5892 5893 5894 5895 5898 5899 5900 5902 5902
5766 5764 5762 5760 5758 5756 5755 5754 5753 5753 5752 5752 5752 5753 5753 5754 5754 5755 5756 5758 5759 5760 5763 5766 5767 5768 5770 5772 5772 5773 5776 5778 5779 5782 5782 5782 5784 5786 5789 5792 5794 5798 5802 5804 5806 5809 5812 5812 5814 5818 5820 5824 5828 5830 5834 5839 5841 5842 5845 5848 5852 5855 5858 5862 5866 5871 5875 5879 5882 5880 5874 5875 5879 5877 5877 5879 5881 5885 5888 5890 5892 5893 5894 5896 5898 5900 5901 5902
5766 5764 5763 5760 5759 5757 5755 5754 5754 5753 5753 5753 5753 5753 5754 5754 5754 5755 5756 5758 5759 5760 5762 5764 5766 5768 5770 5771 5771 5772 5776 5778 5779 5781 5781 5781 5783 5785 5787 5790 5793 5796 5799 5800 5801 5805 5809 5811 5812 5815 5818 5822 5826 5829 5832 5836 5839 5840 5843 5847 5849 5852 5857 5861 5865 5868 5872 5876 5880 5878 5873 5872 5873 5872 5872 5875 5878 5882 5885 5888 5890 5892 5893 5895 5897 5898 5900 5901
5766 5765 5763 5761 5759 5758 5756 5755 5754 5754 5753 5754 5754 5754 5754 5755 5755 5755 5756 5758 5759 5760 5761 5762 5764 5767 5768 5769 5770 5772 5774 5776 5777 5778 5778 5779 5781 5784 5786 5788 5791 5794 5797 5798 5801 5804 5807 5810 5811 5812 5816 5821 5823 5824 5828 5831 5834 5837 5842 5847 5847 5849 5854 5858 5861 5865 5869 5874 5878 5878 5872 5867 5869 5870 5869 5872 5876 5880 5882 5885 5888 5890 5892 5894 5895 5897 5899 5900
5766 5765 5763 5761 5760 5759 5757 5756 5755 5755 5754 5755 5755 5755 5755 5755 5755 5756 5757 5758 5759 5760 5760 5761 5763 5765 5766 5768 5769 5770 5772 5774 5775 5776 5776 5778 5780 5782 5784 5787 5790 5792 5795 5797 5799 5802 5804 5808 5811 5812 5815 5817 5817 5820 5825 5827 5828 5832 5837 5842 5845 5849 5852 5854 5857 5861 5865 5871 5874 5874 5868 5863 5864 5867 5867 5870 5875 5878 5880 5883 5885 5887 5890 5892 5894 5895 5897 5898
5766 5765 5764 5762 5761 5759 5758 5757 5757 5756 5755 5755 5756 5756 5756 5756 5756 5757 5757 5758 5759 5760 5760 5761 5762 5763 5765 5766 5767 5769 5771 5772 5773 5774 5775 5777 5779 5781 5783 5786 5788 5790 5792 5794 5796 5799 5802 5806 5810 5811 5811 5812 5814 5820 5824 5824 5826 5830 5833 5837 5841 5846 5849 5852 5857 5859 5860 5865 5866 5865 5862 5859 5859 5863 5867 5869 5872 5875 5877 5880 5882 5885 5888 5890 5891 5893 5895 5896
5766 5765 5764 5763 5761 5760 5759 5758 5758 5757 5757 5757 5756 5756 5756 5756 5757 5757 5758 5759 5759 5760 5761 5761 5762 5763 5764 5765 5766 5768 5769 5770 5771 5772 5774 5775 5777 5780 5782 5784 5786 5788 5790 5792 5794 5798 5801 5804 5807 5807 5807 5811 5814 5818 5820 5821 5825 5828 5831 5832 5835 5838 5842 5846 5851 5852 5855 5861 5861 5860 5858 5855 5855 5860 5865 5867 5867 5870 5874 5876 5879 5882 5885 5887 5889 5890 5892 5894
5766 5766 5765 5763 5762 5760 5759 5758 5758 5758 5758 5757 5757 5757 5757 5757 5757 5757 5758 5759 5759 5760 5761 5761 5762 5763 5764 5765 5766 5767 5768 5769 5770 5771 5773 5774 5776 5778 5780 5782 5784 5786 5788 5791 5793 5796 5798 5800 5803 5805 5807 5810 5812 5815 5817 5819 5822 5823 5824 5827 5830 5833 5837 5841 5844 5847 5850 5854 5858 5858 5854 5851 5853 5858 5861 5863 5864 5867 5870 5873 5876 5879 5882 5884 5886 5888 5890 5891
5766 5765 5765 5763 5762 5761 5760 5759 5759 5758 5758 5758 5757 5757 5757 5757 5757 5757 5758 5758 5759 5760 5760 5761 5762 5762 5763 5765 5765 5766 5768 5768 5770 5771 5772 5774 5775 5777 5779 5781 5783 5785 5787 5789 5791 5794 5795 5797 5800 5803 5805 5807 5809 5811 5813 5815 5818 5819 5821 5825 5829 5832 5835 5839 5842 5845 5848 5849 5852 5853 5848 5846 5850 5854 5856 5859 5861 5863 5867 5870 5873 5876 5879 5881 5883 5885 5887 5889
5765 5765 5764 5764 5762 5761 5760 5759 5759 5758 5758 5758 5758 5758 5758 5757 5758 5758 5758 5758 5758 5759 5760 5760 5761 5762 5763 5764 5764 5766 5767 5768 5769 5770 5771 5773 5774 5776 5777 5779 5781 5783 5785 5787 5789 5791 5793 5796 5798 5800 5801 5802 5804 5806 5809 5813 5816 5817 5820 5824 5826 5828 5832 5836 5838 5840 5844 5846 5847 5846 5845 5844 5846 5848 5851 5855 5858 5860 5864 5866 5869 5872 5875 5877 5879 5882 5884 5885
5765 5764 5764 5763 5763 5761 5761 5760 5759 5759 5758 5758 5758 5758 5758 5758 5758 5758 5758 5758 5758 5759 5759 5759 5760 5761 5762 5763 5763 5764 5766 5767 5768 5769 5770 5772 5773 5774 5776 5777 5780 5781 5783 5785 5787 5789 5792 5794 5795 5796 5798 5799 5801 5804 5807 5811 5812 5814 5817 5820 5822 5826 5829 5831 5832 5833 5838 5842 5842 5842 5844 5843 5842 5844 5848 5852 5855 5858 5861 5863 5866 5869 5871 5873 5875 5878 5880 5882
5764 5764 5764 5763 5762 5762 5761 5760 5759 5759 5758 5758 5758 5758 5758 5758 5758 5757 5757 5758 5758 5758 5758 5759 5759 5760 5760 5761 5762 5763 5764 5765 5766 5767 5769 5770 5771 5773 5774 5775 5777 5779 5781 5783 5785 5787 5790 5790 5791 5794 5796 5798 5800 5802 5804 5807 5809 5812 5815 5817 5819 5822 5824 5825 5827 5830 5834 5838 5838 5840 5842 5841 5840 5842 5844 5847 5851 5854 5857 5859 5862 5864 5867 5869 5871 5874 5876 5878
5763 5763 5763 5763 5762 5761 5761 5760 5760 5759 5759 5758 5758 5758 5758 5757 5757 5757 5757 5757 5757 5757 5758 5758 5759 5759 5760 5760 5761 5761 5762 5763 5764 5765 5767 5768 5770 5771 5772 5773 5775 5777 5779 5781 5783 5785 5787 5787 5789 5793 5794 5796 5798 5800 5802 5804 5807 5809 5811 5813 5816 5818 5819 5821 5824 5827 5830 5834 5835 5838 5839 5837 5837 5838 5840 5844 5848 5850 5853 5855 5857 5860 5862 5864 5867 5869 5872 5874
5762 5762 5762 5762 5762 5761 5761 5760 5760 5759 5759 5759 5758 5758 5758 5758 5757 5757 5756 5756 5756 5756 5757 5757 5758 5759 5759 5759 5760 5761 5761 5762 5763 5764 5766 5767 5768 5769 5770 5772 5773 5775 5777 5778 5780 5783 5783 5785 5788 5791 5792 5793 5795 5797 5799 5801 5804 5805 5807 5810 5812 5814 5816 5818 5821 5823 5826 5829 5831 5834 5835 5833 5833 5833 5837 5842 5844 5844 5848 5850 5852 5856 5858 5860 5863 5865 5867 5870
5761 5761 5761 5761 5761 5761 5760 5760 5759 5759 5759 5759 5759 5758 5758 5758 5758 5757 5757 5756 5756 5755 5755 5756 5757 5757 5758 5759 5759 5760 5761 5762 5762 5764 5765 5765 5767 5768 5769 5770 5771 5773 5774 5776 5778 5779 5780 5783 5786 5788 5789 5790 5791 5794 5796 5798 5800 5802 5803 5806 5808 5810 5812 5813 5816 5819 5821 5823 5827 5830 5830 5829 5829 5830 5834 5838 5839 5839 5842 5845 5848 5851 5854 5856 5859 5860 5863 5865
5760 5760 5760 5760 5760 5760 5760 5759 5759 5759 5759 5758 5758 5758 5758 5758 5758 5757 5757 5756 5756 5756 5755 5755 5755 5756 5757 5758 5758 5759 5760 5761 5762 5763 5764 5765 5765 5766 5767 5768 5769 5771 5772 5774 5775 5776 5778 5781 5782 5785 5787 5786 5787 5791 5793 5794 5797 5798 5798 5801 5804 5806 5807 5809 5811 5814 5817 5819 5823 5824 5823 5824 5827 5829 5831 5834 5835 5834 5837 5841 5844 5846 5849 5851 5854 5856 5858 5860